FW2736 Weather Reports


Display with metric or nautical units.
time (UTC)temp
F
wind
direction
speed
MPH
gust
MPH
rain 1hr
in
rain 24hr
in
rain mn
in
humidity
%
barometer
mb
20260901003132 89 154 12.0 0.0 0.00 0.00 0.00 26 959.7
20260901002631 89 110 13.0 0.0 0.00 0.00 0.00 25 959.7
20260901002131 90 144 13.0 0.0 0.00 0.00 0.00 25 959.7
20260901001632 90 137 13.0 0.0 0.00 0.00 0.00 26 959.7
20260901001130 90 197 14.0 0.0 0.00 0.00 0.00 25 959.7
20260901000629 91 145 14.0 0.0 0.00 0.00 0.00 24 959.7
20260901000131 91 196 15.0 0.0 0.00 0.00 0.00 25 959.7
20260831235630 91 149 14.0 0.0 0.00 0.00 0.00 25 959.7
20260831235128 92 102 14.0 0.0 0.00 0.00 0.00 25 959.7
20260831234630 92 189 11.0 0.0 0.00 0.00 0.00 25 959.7
20260831234129 92 96 11.0 0.0 0.00 0.00 0.00 25 959.7
20260831233628 92 76 10.0 0.0 0.00 0.00 0.00 25 959.7
20260831233126 92 210 11.0 0.0 0.00 0.00 0.00 25 959.7
20260831232628 92 152 11.0 0.0 0.00 0.00 0.00 25 959.7
20260831232229 92 30 11.0 0.0 0.00 0.00 0.00 25 959.7
20260831231127 93 127 13.0 0.0 0.00 0.00 0.00 26 959.7
20260831230626 93 159 12.0 0.0 0.00 0.00 0.00 26 959.7
20260831230125 93 175 15.0 0.0 0.00 0.00 0.00 26 959.7
20260831225625 94 98 15.0 0.0 0.00 0.00 0.00 26 959.7
20260831225126 94 212 13.0 0.0 0.00 0.00 0.00 25 959.7
20260831224625 94 129 12.0 0.0 0.00 0.00 0.00 26 959.7
20260831214422 95 154 11.0 0.0 0.00 0.00 0.00 25 960.4
20260831213924 95 50 16.0 0.0 0.00 0.00 0.00 25 960.4
20260831213621 94 194 16.0 0.0 0.00 0.00 0.00 26 960.4
20260831212824 94 134 11.0 0.0 0.00 0.00 0.00 26 960.4
20260831211439 95 136 10.0 0.0 0.00 0.00 0.00 25 960.7
20260831210943 94 134 12.0 0.0 0.00 0.00 0.00 24 960.7
20260831210423 95 100 13.0 0.0 0.00 0.00 0.00 23 960.7
20260831205937 95 149 11.0 0.0 0.00 0.00 0.00 23 960.7
20260831205441 95 140 10.0 0.0 0.00 0.00 0.00 23 960.7
20260831204941 95 124 11.0 0.0 0.00 0.00 0.00 22 961.1
20260831204520 95 126 11.0 0.0 0.00 0.00 0.00 22 961.1
20260831204219 94 152 9.0 0.0 0.00 0.00 0.00 22 961.1
20260831203438 95 122 10.0 0.0 0.00 0.00 0.00 22 961.1
20260831202923 94 135 13.0 0.0 0.00 0.00 0.00 23 961.1
20260831202617 94 176 0.0 0.0 0.00 0.00 0.00 23 961.1
20260831200936 95 125 13.0 0.0 0.00 0.00 0.00 22 961.1
20260831200441 94 124 13.0 0.0 0.00 0.00 0.00 22 961.1
20260831195938 94 176 9.0 0.0 0.00 0.00 0.00 22 961.1
20260831195417 93 105 13.0 0.0 0.00 0.00 0.00 22 961.1
20260831195018 93 135 10.0 0.0 0.00 0.00 0.00 23 961.4
20260831194716 92 141 0.0 0.0 0.00 0.00 0.00 20 961.4
20260831192440 92 126 11.0 0.0 0.00 0.00 0.00 20 961.4
20260831191938 92 207 10.0 0.0 0.00 0.00 0.00 20 961.4
20260831191440 91 146 13.0 0.0 0.00 0.00 0.00 21 961.4
20260831190941 92 88 10.0 0.0 0.00 0.00 0.00 20 961.7
20260831190444 92 190 10.0 0.0 0.00 0.00 0.00 20 961.7
20260831185941 92 108 8.0 0.0 0.00 0.00 0.00 20 961.7
20260831185614 91 135 9.0 0.0 0.00 0.00 0.00 21 961.7
20260831172414 86 95 6.0 0.0 0.00 0.00 0.00 45 962.1
20260831171937 86 131 5.0 0.0 0.00 0.00 0.00 46 962.1
20260831171436 86 80 3.0 0.0 0.00 0.00 0.00 47 962.1
20260831170940 84 129 6.0 0.0 0.00 0.00 0.00 48 962.1
20260831170442 85 149 4.0 0.0 0.00 0.00 0.00 49 962.1
20260831165914 84 139 6.0 0.0 0.00 0.00 0.00 50 962.1
20260831165442 84 243 5.0 0.0 0.00 0.00 0.00 49 962.1
20260831164914 84 101 5.0 0.0 0.00 0.00 0.00 49 962.1
20260831164441 83 227 5.0 0.0 0.00 0.00 0.00 51 962.1
20260831163944 82 96 4.0 0.0 0.00 0.00 0.00 52 962.1
20260831163443 82 290 4.0 0.0 0.00 0.00 0.00 52 962.1
20260831162940 82 11 4.0 0.0 0.00 0.00 0.00 53 962.1
20260831162442 81 349 4.0 0.0 0.00 0.00 0.00 55 961.7
20260831161943 81 65 4.0 0.0 0.00 0.00 0.00 55 962.1
20260831161440 80 201 4.0 0.0 0.00 0.00 0.00 56 961.7
20260831160916 80 148 3.0 0.0 0.00 0.00 0.00 57 962.1
20260831160444 79 278 3.0 0.0 0.00 0.00 0.00 58 962.1
20260831155944 78 329 4.0 0.0 0.00 0.00 0.00 59 962.1
20260831155541 79 328 4.0 0.0 0.00 0.00 0.00 59 962.1
20260831154713 78 162 3.0 0.0 0.00 0.00 0.00 61 962.1
20260831154143 78 183 3.0 0.0 0.00 0.00 0.00 62 962.1
20260831153815 76 210 0.0 0.0 0.00 0.00 0.00 64 962.1
20260831152539 76 7 3.0 0.0 0.00 0.00 0.00 65 962.1
20260831142414 68 170 3.0 0.0 0.00 0.00 0.00 83 961.7
20260831141939 67 130 3.0 0.0 0.00 0.00 0.00 84 961.7
20260831141414 67 126 4.0 0.0 0.00 0.00 0.00 85 961.4
20260831140914 66 141 3.0 0.0 0.00 0.00 0.00 86 961.4
20260831140415 66 118 2.0 0.0 0.00 0.00 0.00 88 961.4
20260831140000 65 169 2.0 0.0 0.00 0.00 0.00 90 961.4
20260831135426 64 176 2.0 0.0 0.00 0.00 0.00 91 961.4
20260831134944 63 112 3.0 0.0 0.00 0.00 0.00 92 961.4
20260831134657 63 187 3.0 0.0 0.00 0.00 0.00 93 961.4
20260831134241 63 175 2.0 0.0 0.00 0.00 0.00 92 961.4
20260831133440 63 205 1.0 0.0 0.00 0.00 0.00 91 961.4
20260831131255 62 207 0.0 0.0 0.00 0.00 0.00 86 961.1
20260831130432 62 207 0.0 0.0 0.00 0.00 0.00 85 961.1
20260831125918 63 207 0.0 0.0 0.00 0.00 0.00 86 961.1
20260831125444 63 205 0.0 0.0 0.00 0.00 0.00 87 961.1
20260831124952 63 325 0.0 0.0 0.00 0.00 0.00 87 961.1
20260831122915 63 325 0.0 0.0 0.00 0.00 0.00 84 961.1
20260831122441 64 324 0.0 0.0 0.00 0.00 0.00 83 961.1
20260831121938 64 325 2.0 0.0 0.00 0.00 0.00 82 961.1
20260831121442 64 324 2.0 0.0 0.00 0.00 0.00 83 961.1
20260831120942 64 326 2.0 0.0 0.00 0.00 0.00 82 961.1
20260831120443 64 304 3.0 0.0 0.00 0.00 0.00 84 961.1
20260831115941 64 318 2.0 0.0 0.00 0.00 0.00 82 961.1
20260831115442 64 342 2.0 0.0 0.00 0.00 0.00 80 961.1
20260831114944 64 318 2.0 0.0 0.00 0.00 0.00 78 961.1
20260831114807 64 30 2.0 0.0 0.00 0.00 0.00 78 961.1
20260831105306 65 315 2.0 0.0 0.00 0.00 0.00 75 961.1
20260831104439 65 230 1.0 0.0 0.00 0.00 0.00 75 961.1
20260831104005 66 229 1.0 0.0 0.00 0.00 0.00 74 961.1
20260831103439 66 302 2.0 0.0 0.00 0.00 0.00 73 961.1
20260831102940 67 207 2.0 0.0 0.00 0.00 0.00 73 961.1
20260831102442 67 162 2.0 0.0 0.00 0.00 0.00 73 961.1
20260831101959 67 297 2.0 0.0 0.00 0.00 0.00 74 961.1
20260831101501 67 297 0.0 0.0 0.00 0.00 0.00 72 961.1
20260831101000 67 297 0.0 0.0 0.00 0.00 0.00 74 961.1
20260831100459 67 297 0.0 0.0 0.00 0.00 0.00 72 960.7
20260831095959 67 296 1.0 0.0 0.00 0.00 0.00 72 961.1
20260831095458 67 296 0.0 0.0 0.00 0.00 0.00 72 961.1
20260831094856 67 297 2.0 0.0 0.00 0.00 0.00 72 961.1
20260831094758 67 296 2.0 0.0 0.00 0.00 0.00 72 961.1
20260831093955 67 312 0.0 0.0 0.00 0.00 0.00 72 961.1
20260831093355 67 312 0.0 0.0 0.00 0.00 0.00 70 961.1
20260831093255 68 312 0.0 0.0 0.00 0.00 0.00 69 961.1
20260831092455 68 313 2.0 0.0 0.00 0.00 0.00 68 961.1
20260831091957 68 312 2.0 0.0 0.00 0.00 0.00 67 960.7
20260831091454 69 289 2.0 0.0 0.00 0.00 0.00 68 960.7
20260831091057 68 215 3.0 0.0 0.00 0.00 0.00 72 960.7
20260831090656 68 299 0.0 0.0 0.00 0.00 0.00 68 960.7
20260831084953 68 300 1.0 0.0 0.00 0.00 0.00 68 961.1
20260831084455 68 299 0.0 0.0 0.00 0.00 0.00 66 961.1
20260831083952 68 299 1.0 0.0 0.00 0.00 0.00 66 961.1
20260831083352 68 267 1.0 0.0 0.00 0.00 0.00 66 961.1
20260831070447 72 0 3.0 0.0 0.00 0.00 0.00 62 961.1
20260831065947 72 314 3.0 0.0 0.00 0.00 0.00 62 961.1
20260831065447 72 335 3.0 0.0 0.00 0.00 0.00 62 961.1
20260831064945 72 324 4.0 0.0 0.00 0.00 0.00 61 961.1
20260831064444 72 335 4.0 0.0 0.00 0.00 0.00 62 961.1
20260831063945 72 307 8.0 0.0 0.00 0.00 0.00 62 961.1
20260831063445 72 348 3.0 0.0 0.00 0.00 0.00 62 961.1
20260831062945 73 1 8.0 0.0 0.00 0.00 0.00 62 961.1
20260831062444 73 207 8.0 0.0 0.00 0.00 0.00 61 960.7
20260831061944 73 74 3.0 0.0 0.00 0.00 0.00 61 960.7
20260831061448 73 39 4.0 0.0 0.00 0.00 0.00 61 960.7
20260831060943 73 345 5.0 0.0 0.00 0.00 0.00 61 960.7
20260831060443 73 195 5.0 0.0 0.00 0.00 0.00 61 960.7
20260831055945 74 19 5.0 0.0 0.00 0.00 0.00 60 960.7
20260831055443 74 137 4.0 0.0 0.00 0.00 0.00 60 960.7
20260831054942 74 328 5.0 0.0 0.00 0.00 0.00 59 960.7
20260831054441 74 318 6.0 0.0 0.00 0.00 0.00 58 960.7
20260831053943 75 282 6.0 0.0 0.00 0.00 0.00 58 960.7
20260831053442 75 290 5.0 0.0 0.00 0.00 0.00 57 960.7
20260831052942 75 222 6.0 0.0 0.00 0.00 0.00 57 960.7
20260831052441 75 129 7.0 0.0 0.00 0.00 0.00 56 960.7
20260831051941 75 152 5.0 0.0 0.00 0.00 0.00 56 960.7
20260831051441 75 248 4.0 0.0 0.00 0.00 0.00 56 960.7
20260831050941 75 205 4.0 0.0 0.00 0.00 0.00 55 960.7
20260831050440 76 213 8.0 0.0 0.00 0.00 0.00 57 960.7
20260831045942 76 178 8.0 0.0 0.00 0.00 0.00 58 960.7
20260831045637 76 126 3.0 0.0 0.00 0.00 0.00 57 960.4
20260831045240 76 291 4.0 0.0 0.00 0.00 0.00 56 960.7
20260831044442 76 170 3.0 0.0 0.00 0.00 0.00 56 960.4
20260831043938 76 189 3.0 0.0 0.00 0.00 0.00 55 960.4
20260831043438 76 259 3.0 0.0 0.00 0.00 0.00 56 960.4
20260831042938 76 302 6.0 0.0 0.00 0.00 0.00 56 960.4
20260831042438 77 7 8.0 0.0 0.00 0.00 0.00 56 960.4
20260831041936 77 292 8.0 0.0 0.00 0.00 0.00 56 960.4
20260831041439 77 326 7.0 0.0 0.00 0.00 0.00 55 960.4
20260831040937 77 345 8.0 0.0 0.00 0.00 0.00 54 960.4
20260831040435 78 315 7.0 0.0 0.00 0.00 0.00 53 960.4
20260831035935 78 81 8.0 0.0 0.00 0.00 0.00 53 960.4
20260831035438 78 62 8.0 0.0 0.00 0.00 0.00 52 960.4
20260831034937 78 333 6.0 0.0 0.00 0.00 0.00 52 960.0
20260831034436 78 65 9.0 0.0 0.00 0.00 0.00 52 960.0
20260831034333 78 199 7.0 0.0 0.00 0.00 0.00 53 960.0
20260831024431 82 137 5.0 0.0 0.00 0.00 0.00 43 959.4
20260831023930 82 153 5.0 0.0 0.00 0.00 0.00 43 959.4
20260831023431 82 137 6.0 0.0 0.00 0.00 0.00 42 959.4
20260831022929 83 126 7.0 0.0 0.00 0.00 0.00 42 959.4
20260831022431 83 109 7.0 0.0 0.00 0.00 0.00 41 959.0
20260831021930 84 161 10.0 0.0 0.00 0.00 0.00 40 959.0
20260831021428 84 117 10.0 0.0 0.00 0.00 0.00 40 958.7
20260831020930 84 46 9.0 0.0 0.00 0.00 0.00 39 958.7
20260831020431 84 67 7.0 0.0 0.00 0.00 0.00 39 958.7
20260831015928 85 330 8.0 0.0 0.00 0.00 0.00 39 958.7
20260831015429 85 72 9.0 0.0 0.00 0.00 0.00 38 958.3
20260831014928 85 106 9.0 0.0 0.00 0.00 0.00 38 958.3
20260831014427 86 109 10.0 0.0 0.00 0.00 0.00 37 958.7
20260831013928 86 24 9.0 0.0 0.00 0.00 0.00 37 958.7
20260831013427 87 69 8.0 0.0 0.00 0.00 0.00 36 958.7
20260831012927 87 71 10.0 0.0 0.00 0.00 0.00 36 958.7
20260831012426 87 54 12.0 0.0 0.00 0.00 0.00 36 958.7
20260831011925 87 162 11.0 0.0 0.00 0.00 0.00 36 958.7
20260831011426 88 264 12.0 0.0 0.00 0.00 0.00 36 958.7
20260831010926 88 129 13.0 0.0 0.00 0.00 0.00 35 958.7
20260831010426 88 107 12.0 0.0 0.00 0.00 0.00 35 958.7
20260831005924 88 53 15.0 0.0 0.00 0.00 0.00 34 958.7
20260831005426 88 120 15.0 0.0 0.00 0.00 0.00 34 958.7
20260831004924 89 150 14.0 0.0 0.00 0.00 0.00 34 958.7
20260831004425 90 133 13.0 0.0 0.00 0.00 0.00 33 958.7
20260831003925 91 182 9.0 0.0 0.00 0.00 0.00 33 958.7